This is the latest recevied weather packets stored in our database for station/object BV3BA-13. If no packets are shown the sender has not sent any weather packets the latest 10 day(s).
| Time | Temp. | Humidity | Pressure | Rain* | Wind** | Luminosity | Snow |
|---|---|---|---|---|---|---|---|
| 1777634224 | 22.22° C | 75% | 1009.7 hPa | 0 mm | - | - | - |
| 1777633623 | 22.22° C | 75% | 1009.6 hPa | 0 mm | - | - | - |
| 1777633023 | 22.78° C | 75% | 1009.6 hPa | 0 mm | - | - | - |
| 1777632424 | 22.78° C | 74% | 1009.8 hPa | 0 mm | - | - | - |
| 1777631823 | 22.78° C | 73% | 1009.9 hPa | 0 mm | - | - | - |
| 1777631224 | 22.78° C | 73% | 1009.8 hPa | 0 mm | - | - | - |
| 1777630624 | 23.33° C | 73% | 1009.7 hPa | 0 mm | - | - | - |
| 1777630023 | 23.33° C | 72% | 1009.6 hPa | 0 mm | - | - | - |
| 1777629424 | 23.33° C | 72% | 1009.6 hPa | 0 mm | - | - | - |
| 1777628823 | 23.89° C | 71% | 1009.7 hPa | 0 mm | - | - | - |
| 1777628223 | 23.33° C | 71% | 1009.6 hPa | 0 mm | - | - | - |
| 1777627623 | 23.89° C | 71% | 1009.5 hPa | 0 mm | - | - | - |
| 1777627023 | 23.33° C | 70% | 1009.4 hPa | 0 mm | - | - | - |
| 1777626424 | 23.89° C | 71% | 1009.4 hPa | 0 mm | - | - | - |
| 1777625824 | 23.89° C | 69% | 1009.3 hPa | 0 mm | - | - | - |
| 1777625224 | 23.89° C | 68% | 1009.3 hPa | 0 mm | - | - | - |
| 1777624624 | 24.44° C | 69% | 1009.4 hPa | 0 mm | - | - | - |
| 1777624023 | 24.44° C | 68% | 1009.4 hPa | 0 mm | - | - | - |
| 1777623423 | 23.89° C | 68% | 1009.5 hPa | 0 mm | - | - | - |
| 1777622824 | 24.44° C | 69% | 1009.7 hPa | 0 mm | - | - | - |
| 1777622224 | 24.44° C | 68% | 1009.9 hPa | 0 mm | - | - | - |
| 1777621624 | 24.44° C | 68% | 1010 hPa | 0 mm | - | - | - |
| 1777621024 | 24.44° C | 68% | 1009.9 hPa | 0 mm | - | - | - |
| 1777620424 | 25° C | 67% | 1010 hPa | 0 mm | - | - | - |
| 1777619823 | 24.44° C | 67% | 1010.1 hPa | 0 mm | - | - | - |
* Rain latest hour (hover to see other rain measurements)
** Current wind speed in m/s (hover to see current wind gust speed)